Reflectivity
-20 -20 -20 -20 -20 -20 -20 -20 -20 -20 -20 -20 -20 -20 -20 -20 -20 -20 -20 -20 -20 -20 -20 -20 -20 -20 -20 -20 4 2 -14 13 11 -20 -4 -15 -20 -20 -20 -20 -20 -20 -20 -20 -20
-20 -20 -20 -20 -20 -20 -20 -20 -20 -20 -20 -20 -20 -20 -20 -20 -20 -20 -20 -20 -20 -20 -20 -20 -20 -20 -20 -20 -20 -18 -14 10 18 -12 3 -20 -20 -20 -20 -20 -20 -20 -20 -20 -20
-20 -20 -20 -20 -20 -20 -20 -20 -20 -20 -20 -20 -20 -20 -20 -20 -20 -20 -20 -20 -20 -20 -20 -20 -20 -20 -20 -20 -20 -20 -19 -5 -19 -2 8 -6 -7 -20 -20 -20 -20 -20 -20 -20 -20
-20 -20 -20 -20 -20 -20 -20 -20 -20 -20 -20 -20 -20 -20 -20 -20 -20 -20 -20 -20 -20 -20 -20 -20 -20 -20 -20 -20 -20 -20 -20 -19 -12 -20 -20 -20 -20 -20 -20 -20 -20 -20 -20 -20 -20
-20 -20 -20 -20 -20 -20 -20 -20 -20 -20 -20 -20 -20 -20 -20 -20 -20 -20 -20 -20 -20 -20 -20 -20 -20 -20 -20 -20 -20 -20 -20 -20 -20 -20 -20 -20 -14 -15 -20 -20 -20 -20 -20 -20 -20
-20 -20 -20 -20 -20 -20 -20 -20 -20 -20 -20 -20 -20 -20 -20 -20 -20 -20 -20 -20 -20 -20 -20 -20 -20 -20 -20 -20 -20 -20 -20 -19 -19 3 -17 -20 -15 -18 -20 -20 -20 -20 -20 -20 -20
-20 -20 -20 -20 -20 -20 -20 -20 -20 -20 -20 -20 -13 -19 -20 -20 -20 -20 -20 -20 -20 -20 -20 -20 -20 -20 -20 -20 -20 -20 -20 -20 -20 -17 -20 -20 31 24 -20 -20 -20 -20 -20 -20 -20
-20 -20 -20 -20 -20 -20 -20 -20 -20 -20 -20 -20 6 -20 -20 -20 -20 -20 -20 -20 -20 -20 -20 -20 -20 -20 -20 -20 -20 -20 -20 -20 -20 -20 -20 -20 1 24 -2 -20 -20 -20 -20 -20 -20
-20 -20 -20 -20 -20 -20 -20 -20 -20 -20 -20 -20 -20 -20 -20 -20 -20 -20 -20 -20 -20 -20 -20 -20 -20 -20 -20 -20 -20 -20 -20 -20 -20 -19 -20 -20 -20 -20 -20 -20 -20 -20 -20 -20 -20
-20 -20 -20 -20 -20 -20 -20 -20 -20 -20 -20 -20 -20 -20 -20 -20 -20 -20 -20 -20 -20 -20 -20 -20 -20 -20 -20 -20 -20 -20 -20 -20 -20 -20 -20 -20 -20 -20 -20 -20 -20 -20 -20 -20 -20
-20 -20 -20 -20 -20 -20 -20 -20 -20 -20 -20 -20 -20 -20 -20 -20 -20 -20 -20 -20 -20 -20 -20 -20 -20 -20 -20 -20 -20 -20 -20 -20 -20 -20 -20 -20 -20 -20 -20 -20 -20 -20 -20 -20 -20
-20 -20 -20 -20 -20 -20 -20 -20 -20 -20 -20 -20 -20 -20 -20 -20 -20 -20 -20 -20 -20 -20 -20 -20 -20 -20 -20 -20 -20 -20 -20 -20 -12 11 -18 -20 -17 -20 -20 -20 -20 -20 -20 -20 -20
-20 -20 -20 -20 -20 -20 -20 -20 -20 -20 -20 -20 -20 -20 -20 -20 -20 -20 -20 -20 -20 -20 -20 -20 -20 -20 -20 -20 -20 -20 -20 -20 -20 18 -7 7 -20 -20 -20 -20 -20 -20 -20 -20 -20
-20 -20 -20 -20 -20 -20 -20 -20 -20 -20 -20 -20 -20 -20 -20 -20 -20 -20 -20 -20 -20 -20 -20 -20 -20 -20 -20 -20 -20 -20 -20 -20 -20 13 -0 -6 -20 -20 -20 -20 -10 -20 -20 -20 -20
-20 -20 -20 -20 -20 -20 -20 -20 -20 -20 -20 -20 -20 -20 -20 -20 -20 -20 -20 -20 -20 -20 -20 -20 -20 -20 -20 -20 -20 -20 -20 -20 -20 -20 -20 -1 26 14 -20 -20 -20 -20 -20 -20 -20
-20 -20 -20 -20 -20 -20 -20 -20 -20 -20 -20 -20 -20 -20 -20 -20 -20 -20 -20 -20 -20 -20 -20 -20 -20 -20 -20 -20 -20 -20 -20 -20 -20 -20 -9 -20 -7 -20 -7 -20 -20 -20 -11 -20 -20
-20 -20 -20 -20 -20 -20 -20 -20 -20 -20 -20 -20 -20 -20 -20 -20 -20 -20 -20 -20 -20 -20 -20 -20 -20 -20 -20 -20 -20 -20 -20 -20 -20 -20 -20 -20 -20 -20 6 -20 -20 -20 -20 -20 11
-20 -20 -20 -20 -20 -20 -20 -20 -20 -20 -20 -20 -20 -20 -20 -20 -20 -20 -20 -20 -20 -20 -20 -20 -20 -20 -20 -20 -20 -20 -20 -20 -20 -20 -20 -20 -20 -20 -20 -16 -3 -20 -20 -20 -19
-20 -20 -20 -20 -20 -20 -20 -20 -20 -20 -20 -20 -20 -20 -20 -20 -20 -20 -20 -20 -20 -20 -20 -20 -20 -20 -20 -20 -20 -20 -20 -20 -20 -20 -20 -20 -20 -20 -20 -20 -16 -4 -19 -3 7
-20 -20 -20 -20 -20 -20 -20 -20 -20 -20 -20 -20 -20 -20 -20 -20 -20 -20 -20 -20 -20 -20 -20 -20 -20 -20 -20 -20 -20 -20 -20 -20 -20 -20 -20 -20 -20 -20 -20 -20 -20 -20 -20 -0 -19
-20 -20 -20 -20 -20 -20 -20 -20 -20 -20 -20 -20 -20 -20 -20 -20 -20 -20 -20 -20 -20 -20 -20 -20 -20 -20 -20 -20 -20 -20 -20 -20 -20 -20 -20 -20 -20 -20 -20 -20 -20 -20 -20 -20 -20
-20 -20 -20 -20 -20 -20 -20 -20 -20 -20 -20 -20 -20 -20 -20 -20 -20 -20 -20 -20 -20 -20 -20 -20 -20 -20 -20 -20 -20 -20 -20 -20 -20 -20 -20 -20 -20 -20 -20 -20 6 -20 -20 -20 -20
-20 -20 -20 -20 -20 -20 -20 -20 -20 -20 -20 -20 -20 -20 -20 -20 -20 -20 -20 -20 -20 -20 -20 -20 -20 -20 -20 -20 -20 -20 -20 -20 -20 -20 -20 -20 -20 -20 -20 -10 -20 -10 19 -19 -6
-3 -13 -20 -20 -20 -11 -18 -20 -20 -20 -20 -20 -20 -20 -20 -20 -20 -20 -20 -20 -20 -20 -20 -20 -20 -20 -20 -20 -20 -20 -20 -20 -20 -20 -20 -20 -20 -20 -20 -20 -20 -14 15 1 20
18 -1 -10 -19 -20 -11 12 25 -20 -20 -20 -20 -20 -20 -20 -20 -20 -20 -20 -20 -20 -20 -20 -20 -20 -20 -20 -20 -20 -20 -20 -20 -20 -20 -20 -20 -20 -20 -20 -20 -20 -18 -14 -17 4
19 16 -20 -20 -20 -20 -20 3 -9 -20 -20 -20 -20 -20 -20 26 -13 -14 -20 -20 -20 -20 -20 -20 -20 -20 -20 -20 -20 -20 -20 -20 -20 -20 -20 -20 -20 -20 -20 -20 -20 -20 -20 -20 -11
9 18 21 13 -20 -20 -20 -9 -8 28 -19 -20 -20 -20 -12 -3 15 -20 -20 -20 -20 -20 -20 -20 -20 -20 -20 -20 -20 -20 -20 -20 -20 -20 -20 -20 -20 -20 -20 -20 -18 0 4 -6 -20
Wind_Speed
20 20 20 21 21 21 21 20 20 21 21 20 20 18 17 18 21 5 11 12 10 13 4 5 12 12 13 10 11 4 5 4 6 4 6 12 19 19 21 29 20 6 20 24 22
22 22 22 22 22 22 22 21 21 21 22 21 20 20 17 17 7 13 20 19 19 13 9 11 11 13 9 6 10 7 6 14 13 7 4 19 24 16 19 17 9 24 21 23 25
23 23 23 23 23 23 23 23 22 22 22 22 20 20 17 14 7 9 9 28 21 16 15 10 10 12 13 13 12 9 8 10 17 15 8 10 15 12 15 10 20 25 27 26 26
24 24 25 25 25 24 24 24 24 23 22 21 20 18 17 5 7 3 4 13 14 12 9 11 9 10 10 14 16 7 12 9 4 14 5 7 11 12 14 19 24 25 24 28 24
25 25 25 26 27 26 25 24 24 23 23 20 17 15 8 5 16 8 5 1 7 6 13 14 13 12 13 14 16 12 14 16 15 17 11 12 4 20 15 27 27 23 19 26 23
23 23 24 25 26 26 27 26 24 24 24 20 14 8 4 11 9 13 14 9 11 10 10 13 9 14 9 16 14 17 15 10 15 19 14 21 10 11 23 27 27 25 18 13 14
24 24 24 25 27 28 28 28 27 25 22 18 10 5 7 23 6 5 15 11 9 11 10 12 15 11 7 13 17 16 14 15 6 4 8 23 15 16 22 26 26 24 20 14 12
24 26 27 28 28 28 29 30 30 29 20 14 6 6 12 10 17 18 18 16 11 9 12 11 13 13 7 9 15 12 8 6 8 10 12 17 26 13 16 24 24 23 21 18 15
23 25 28 30 30 30 31 33 32 22 10 6 5 5 12 10 9 13 13 13 11 12 11 14 8 10 8 8 7 7 9 11 15 7 10 11 11 15 14 20 21 22 21 18 15
23 24 26 30 31 31 32 33 17 1 5 9 9 3 10 11 9 12 15 17 9 8 10 9 5 7 9 6 11 8 8 13 14 9 9 11 11 14 8 6 21 20 20 19 18
23 25 27 30 32 31 22 9 4 0 5 9 9 8 21 10 7 11 13 10 9 8 11 11 8 16 13 14 11 14 15 17 19 9 9 5 13 10 12 8 9 20 20 21 21
24 25 27 31 33 34 10 4 14 9 13 15 25 26 27 19 14 15 19 13 12 14 11 10 18 12 12 12 18 20 19 20 14 12 13 13 17 14 11 16 12 19 21 22 21
24 25 26 30 37 15 11 14 13 13 8 16 24 19 26 19 24 16 13 17 16 17 17 17 9 16 18 17 18 22 20 16 10 9 10 10 3 4 14 6 14 19 22 22 24
25 25 25 29 10 11 9 18 17 10 6 11 9 12 14 15 16 25 19 15 11 18 17 14 17 18 22 21 19 18 22 20 19 9 14 16 8 9 15 14 15 18 20 22 22
24 25 24 15 10 7 10 17 19 7 7 6 8 6 12 23 10 24 18 18 18 17 10 19 18 21 21 23 19 21 13 19 21 15 9 11 4 11 18 18 21 20 23 22 22
25 25 23 10 5 16 17 19 7 2 12 9 8 9 14 20 19 3 25 18 9 16 17 18 11 19 20 16 21 16 14 17 16 12 10 15 16 7 15 28 22 20 18 24 22
27 27 21 10 7 6 13 6 2 9 9 9 5 11 17 14 23 24 19 26 22 18 21 19 22 19 20 18 14 19 8 12 12 12 9 12 13 10 21 16 26 24 18 19 21
25 31 12 11 9 13 4 3 12 8 14 19 12 12 15 14 19 25 21 24 25 20 8 15 18 23 13 21 15 17 16 13 14 13 9 9 13 14 18 14 23 25 17 22 19
25 8 9 10 13 9 7 11 7 9 9 15 21 11 15 17 14 19 23 20 23 25 20 15 19 8 24 20 18 12 22 13 5 8 6 8 9 11 15 18 16 17 19 23 20
11 7 11 12 11 8 9 15 10 14 25 17 9 12 11 16 17 16 21 20 21 25 24 10 7 20 21 22 17 19 6 11 14 15 19 15 10 12 8 18 14 12 14 17 17
4 7 11 12 7 10 15 11 16 20 23 14 18 25 24 25 18 22 15 23 23 25 27 25 17 18 15 19 22 11 17 12 7 13 12 10 17 8 10 16 16 18 20 17 29
6 6 11 13 8 8 13 18 22 23 22 25 17 23 26 26 28 24 24 21 17 27 24 24 16 17 24 17 24 24 13 11 10 6 5 8 16 9 13 7 25 30 20 11 9
6 10 13 8 6 9 14 21 22 22 20 21 23 24 21 25 25 20 25 28 24 21 24 17 20 11 17 17 18 26 19 14 15 5 12 5 14 18 16 3 6 4 7 6 7
5 6 7 7 6 14 15 13 15 16 18 20 18 19 18 21 16 19 24 22 24 24 15 11 19 27 19 18 5 9 22 20 17 14 15 23 13 19 5 7 14 15 11 8 10
3 5 11 9 13 19 15 7 19 14 12 14 11 19 23 16 23 12 15 22 20 24 15 4 20 20 26 19 14 24 14 25 23 20 16 12 17 15 10 9 9 11 9 9 7
3 5 5 10 15 18 15 14 16 15 11 14 10 14 18 10 16 21 20 17 12 16 20 12 11 12 17 26 25 26 19 20 25 22 19 17 19 6 6 10 12 9 13 12 7
3 3 2 6 10 11 11 18 20 3 7 12 16 15 18 17 10 17 19 22 21 25 21 11 5 4 8 7 5 20 27 18 11 17 18 17 18 7 9 5 8 4 4 6 8
Wind_Direction
356 353 350 347 344 341 339 335 332 329 327 325 323 322 323 321 310 210 243 229 209 174 153 211 195 212 218 140 158 164 117 287 292 277 147 98 107 116 122 132 143 185 144 155 150
353 350 346 344 341 337 334 332 328 326 323 322 322 321 323 325 288 259 238 220 250 156 202 229 215 201 216 180 178 162 173 191 189 218 256 129 132 141 142 127 133 128 140 150 144
352 347 343 340 337 334 330 327 323 321 320 319 321 320 319 318 278 246 323 209 231 181 215 232 245 251 235 231 192 220 220 170 210 261 226 147 128 129 133 135 151 140 152 158 154
350 345 341 337 334 330 327 323 319 317 317 317 318 319 313 273 288 87 335 137 163 183 238 240 249 258 252 256 244 182 246 214 194 195 177 129 137 141 162 149 147 143 148 157 161
345 341 337 335 331 327 323 318 315 314 314 314 315 319 324 231 244 232 128 162 145 178 213 221 225 237 235 254 262 245 234 238 225 168 203 145 198 165 146 137 137 140 161 155 167
339 336 333 331 328 324 319 316 311 310 310 308 309 309 243 248 253 239 176 167 213 196 209 217 228 227 245 256 263 270 290 272 236 173 176 143 178 118 140 140 142 147 164 170 177
334 333 330 327 325 321 317 313 310 307 302 299 293 225 252 238 254 161 175 185 203 225 217 224 238 256 252 265 273 283 291 291 236 174 161 89 7 144 148 142 147 152 161 181 188
333 330 328 325 324 321 317 312 306 299 288 281 241 206 251 252 238 244 253 258 205 226 210 225 224 246 257 284 285 279 294 291 264 197 156 102 197 219 149 144 151 156 164 179 192
330 328 326 323 322 321 318 312 302 290 255 208 174 241 263 260 220 236 211 237 202 220 210 231 220 221 263 255 294 283 257 269 260 188 156 110 158 174 159 151 157 161 168 178 188
328 327 323 321 320 322 321 309 285 336 181 179 266 296 254 253 211 203 224 217 209 221 240 230 224 230 216 206 224 239 247 255 253 193 102 120 178 152 161 124 161 164 170 177 187
328 328 325 321 319 319 331 340 314 104 237 221 188 239 290 275 240 190 197 201 194 223 215 216 209 222 216 217 230 246 246 250 250 176 92 123 171 199 185 171 202 170 172 177 186
329 329 327 321 318 315 298 262 296 299 289 253 251 242 252 264 281 232 171 182 194 220 206 221 223 220 233 220 222 245 254 265 296 166 114 177 187 216 221 203 185 184 177 179 180
328 328 328 324 315 304 317 272 278 333 278 277 234 234 223 230 245 224 179 184 192 214 213 219 225 213 231 228 223 228 242 258 243 246 119 156 286 235 253 176 200 195 179 183 181
324 326 331 336 323 341 291 338 342 318 287 268 207 238 210 219 244 237 196 203 214 211 227 224 224 218 219 232 224 226 231 248 257 245 207 175 214 223 220 198 211 204 185 184 186
321 323 326 328 288 292 316 326 311 310 300 244 195 140 156 180 142 226 217 201 205 212 188 225 213 227 226 222 231 235 228 236 252 255 156 231 222 207 193 209 226 190 190 189 184
320 320 327 318 284 256 292 290 286 252 244 273 146 161 139 201 231 312 205 229 228 219 223 236 220 229 233 239 221 243 230 249 253 252 223 206 210 249 185 198 203 194 189 186 190
317 317 311 275 241 304 339 303 197 228 270 231 186 168 191 179 210 235 212 211 211 203 221 232 232 244 220 235 225 219 214 238 249 241 235 203 203 204 236 208 195 194 196 187 183
315 312 278 239 223 253 276 278 234 234 223 299 314 291 209 207 204 212 231 199 212 226 195 217 237 226 222 220 220 210 212 221 220 228 250 244 204 226 208 208 182 182 188 182 194
313 300 275 251 232 214 239 224 208 202 278 358 336 312 267 205 207 208 224 206 204 208 219 204 233 234 227 238 211 232 215 221 267 256 263 235 269 263 205 222 189 178 178 188 197
317 290 261 263 235 186 226 239 263 298 323 334 313 286 317 322 324 206 211 220 205 202 211 247 252 218 239 223 236 207 188 201 222 229 246 251 244 240 230 202 173 182 197 207 189
271 301 277 290 219 202 230 239 261 272 283 295 293 283 287 295 293 288 289 223 215 200 202 215 240 253 227 217 213 226 218 226 191 218 232 239 249 246 231 179 175 196 197 190 202
299 287 290 346 316 224 245 254 261 265 268 276 274 281 285 290 290 285 278 265 269 205 208 201 211 236 249 256 207 215 205 200 219 265 254 234 255 262 241 176 194 190 188 201 173
297 290 273 261 254 265 278 272 270 271 276 286 292 287 285 274 283 271 283 286 281 295 219 199 211 218 250 262 252 209 209 199 218 163 233 187 251 251 254 151 117 155 240 216 224
293 309 297 332 279 279 286 311 326 322 318 325 318 327 333 301 283 290 296 288 292 275 285 317 207 210 220 234 233 224 206 201 196 217 236 242 261 272 283 219 180 197 225 171 229
268 265 314 309 321 328 310 227 291 298 332 351 332 352 333 318 316 309 346 334 323 315 313 310 244 205 213 220 223 240 233 203 204 208 203 234 229 241 234 218 212 189 192 209 194
272 316 338 300 302 314 304 290 305 347 333 315 304 335 326 324 293 317 330 325 297 334 342 327 283 187 205 210 218 241 240 237 209 215 228 231 251 217 229 207 208 208 188 173 193
240 274 279 294 300 297 301 323 316 23 305 315 316 318 309 301 308 280 283 276 266 279 289 279 350 270 206 174 232 236 231 245 245 215 200 213 234 221 263 223 184 206 237 157 226